• In Portugal
  • List of Countries
  • For 7 days
  • Water Temperature
  • Satellite Maps
  • Weather Map
  • Weather Widgets
  • user-avatar
    Login

    Hourly Weather La-Plata

    Today, 15 December, Friday

    Time Temperature Precipitation Wind Pressure Humidity
    00:00 +24°C° 0 mm 3 mps 756 mmHg 32%
    01:00 +24°C° 0 mm 2 mps 756 mmHg 33%
    02:00 +23°C° 0 mm 2 mps 756 mmHg 35%
    03:00 +23°C° 0 mm 2 mps 756 mmHg 37%
    04:00 +21°C° 0 mm 2 mps 756 mmHg 38%
    05:00 +21°C° 0 mm 2 mps 756 mmHg 40%
    06:00 +25°C° 0 mm 2 mps 757 mmHg 35%
    07:00 +28°C° 0 mm 2 mps 757 mmHg 30%
    08:00 +31°C° 0 mm 2 mps 757 mmHg 25%
    09:00 +34°C° 0 mm 2 mps 757 mmHg 22%
    10:00 +36°C° 0 mm 2 mps 756 mmHg 19%
    11:00 +38°C° 0 mm 2 mps 756 mmHg 16%
    12:00 +39°C° 0 mm 3 mps 755 mmHg 15%
    13:00 +40°C° 0 mm 3 mps 755 mmHg 14%
    14:00 +41°C° 0 mm 4 mps 754 mmHg 14%
    15:00 +41°C° 0 mm 4 mps 754 mmHg 14%
    16:00 +40°C° 0 mm 4 mps 753 mmHg 15%
    17:00 +40°C° 0 mm 4 mps 752 mmHg 15%
    18:00 +37°C° 0 mm 5 mps 752 mmHg 18%
    19:00 +35°C° 0 mm 5 mps 752 mmHg 22%
    20:00 +32°C° 0 mm 5 mps 752 mmHg 25%
    21:00 +32°C° 0 mm 6 mps 753 mmHg 26%
    22:00 +32°C° 0 mm 6 mps 753 mmHg 27%
    23:00 +30°C° 0 mm 7 mps 753 mmHg 29%

    Tomorrow, 16 December, Saturday

    Time Temperature Precipitation Wind Pressure Humidity
    00:00 +30°C° 0 mm 7 mps 753 mmHg 31%
    01:00 +30°C° 0 mm 7 mps 752 mmHg 32%
    02:00 +29°C° 0 mm 7 mps 752 mmHg 34%
    03:00 +29°C° 0 mm 7 mps 752 mmHg 35%
    04:00 +29°C° 0 mm 7 mps 752 mmHg 36%
    05:00 +28°C° 0 mm 7 mps 752 mmHg 37%
    06:00 +30°C° 0 mm 7 mps 752 mmHg 35%
    07:00 +33°C° 0 mm 8 mps 752 mmHg 32%
    08:00 +35°C° 0 mm 8 mps 752 mmHg 29%
    09:00 +38°C° 0 mm 8 mps 752 mmHg 26%
    10:00 +39°C° 0 mm 8 mps 751 mmHg 22%
    11:00 +41°C° 0 mm 8 mps 751 mmHg 19%
    12:00 +43°C° 0 mm 7 mps 750 mmHg 18%
    13:00 +43°C° 0 mm 7 mps 749 mmHg 18%
    14:00 +44°C° 0 mm 7 mps 748 mmHg 18%
    15:00 +44°C° 0 mm 7 mps 747 mmHg 18%
    16:00 +44°C° 0 mm 7 mps 747 mmHg 19%
    17:00 +44°C° 0 mm 8 mps 746 mmHg 19%
    18:00 +41°C° 0 mm 7 mps 745 mmHg 22%
    19:00 +39°C° 0 mm 7 mps 745 mmHg 25%
    20:00 +38°C° 0 mm 7 mps 745 mmHg 29%
    21:00 +33°C° 3.3 mm 5 mps 746 mmHg 46%
    22:00 +29°C° 3.3 mm 4 mps 748 mmHg 64%
    23:00 +26°C° 3.3 mm 3 mps 749 mmHg 82%

    Day after tomorrow, 17 December, Sunday

    Time Temperature Precipitation Wind Pressure Humidity
    00:00 +25°C° 4.9 mm 4 mps 750 mmHg 83%
    01:00 +23°C° 4.9 mm 5 mps 751 mmHg 84%
    02:00 +22°C° 4.9 mm 6 mps 751 mmHg 85%
    03:00 +21°C° 0.5 mm 6 mps 752 mmHg 79%
    04:00 +19°C° 0.5 mm 6 mps 753 mmHg 72%
    05:00 +17°C° 0.5 mm 7 mps 754 mmHg 66%
    06:00 +18°C° 0 mm 8 mps 756 mmHg 63%
    07:00 +18°C° 0 mm 8 mps 757 mmHg 60%
    08:00 +18°C° 0 mm 9 mps 759 mmHg 57%
    09:00 +20°C° 0 mm 8 mps 759 mmHg 53%
    10:00 +21°C° 0 mm 8 mps 760 mmHg 49%
    11:00 +22°C° 0 mm 7 mps 761 mmHg 45%
    12:00 +23°C° 0 mm 7 mps 762 mmHg 41%
    13:00 +24°C° 0 mm 7 mps 762 mmHg 37%
    14:00 +26°C° 0 mm 6 mps 762 mmHg 33%
    15:00 +24°C° 0 mm 7 mps 763 mmHg 35%
    16:00 +24°C° 0 mm 7 mps 763 mmHg 36%
    17:00 +23°C° 0 mm 7 mps 763 mmHg 37%
    18:00 +22°C° 0 mm 7 mps 763 mmHg 42%
    19:00 +20°C° 0 mm 7 mps 764 mmHg 48%
    20:00 +17°C° 0 mm 7 mps 765 mmHg 53%
    21:00 +17°C° 0 mm 7 mps 765 mmHg 56%
    22:00 +16°C° 0 mm 6 mps 765 mmHg 58%
    23:00 +16°C° 0 mm 6 mps 766 mmHg 61%

    18 December, Monday

    Time Temperature Precipitation Wind Pressure Humidity
    00:00 +15°C° 0 mm 5 mps 766 mmHg 62%
    01:00 +15°C° 0 mm 5 mps 766 mmHg 64%
    02:00 +15°C° 0 mm 5 mps 766 mmHg 65%
    03:00 +15°C° 0 mm 4 mps 766 mmHg 65%
    04:00 +15°C° 0 mm 4 mps 766 mmHg 65%
    05:00 +14°C° 0 mm 4 mps 766 mmHg 65%
    06:00 +17°C° 0 mm 4 mps 766 mmHg 57%
    07:00 +19°C° 0 mm 5 mps 766 mmHg 50%
    08:00 +20°C° 0 mm 5 mps 766 mmHg 42%
    09:00 +22°C° 0 mm 5 mps 766 mmHg 37%
    10:00 +23°C° 0 mm 4 mps 765 mmHg 33%
    11:00 +25°C° 0 mm 4 mps 765 mmHg 28%
    12:00 +25°C° 0 mm 4 mps 764 mmHg 26%
    13:00 +26°C° 0 mm 5 mps 764 mmHg 25%
    14:00 +26°C° 0 mm 5 mps 763 mmHg 23%
    15:00 +26°C° 0 mm 6 mps 763 mmHg 28%
    16:00 +24°C° 0 mm 7 mps 762 mmHg 32%
    17:00 +24°C° 0 mm 7 mps 762 mmHg 37%
    18:00 +22°C° 0 mm 7 mps 762 mmHg 47%
    19:00 +20°C° 0 mm 7 mps 762 mmHg 58%
    20:00 +18°C° 0 mm 7 mps 763 mmHg 68%
    21:00 +18°C° 0 mm 7 mps 763 mmHg 68%
    22:00 +18°C° 0 mm 7 mps 763 mmHg 68%
    23:00 +18°C° 0 mm 7 mps 763 mmHg 68%

    19 December, Tuesday

    Time Temperature Precipitation Wind Pressure Humidity
    00:00 +18°C° 0 mm 7 mps 763 mmHg 70%
    01:00 +17°C° 0 mm 6 mps 763 mmHg 71%
    02:00 +17°C° 0 mm 6 mps 763 mmHg 73%
    03:00 +17°C° 0 mm 6 mps 763 mmHg 74%
    04:00 +16°C° 0 mm 6 mps 763 mmHg 75%
    05:00 +16°C° 0 mm 5 mps 763 mmHg 75%
    06:00 +19°C° 0 mm 6 mps 763 mmHg 69%
    07:00 +20°C° 0 mm 6 mps 763 mmHg 63%
    08:00 +22°C° 0 mm 6 mps 763 mmHg 56%
    09:00 +23°C° 0 mm 5 mps 763 mmHg 51%
    10:00 +26°C° 0 mm 5 mps 762 mmHg 45%
    11:00 +27°C° 0 mm 5 mps 762 mmHg 40%
    12:00 +28°C° 0 mm 5 mps 761 mmHg 37%
    13:00 +28°C° 0 mm 5 mps 761 mmHg 35%
    14:00 +29°C° 0 mm 5 mps 760 mmHg 32%
    15:00 +28°C° 0 mm 5 mps 760 mmHg 36%
    16:00 +28°C° 0 mm 6 mps 760 mmHg 39%
    17:00 +27°C° 0 mm 7 mps 759 mmHg 42%
    18:00 +26°C° 0 mm 6 mps 759 mmHg 51%
    19:00 +23°C° 0 mm 6 mps 759 mmHg 60%
    20:00 +21°C° 0 mm 5 mps 759 mmHg 69%
    21:00 +21°C° 0 mm 5 mps 759 mmHg 69%
    22:00 +22°C° 0 mm 6 mps 759 mmHg 69%
    23:00 +22°C° 0 mm 6 mps 760 mmHg 68%

    20 December, Wednesday

    Time Temperature Precipitation Wind Pressure Humidity
    00:00 +21°C° 0 mm 6 mps 759 mmHg 70%
    01:00 +21°C° 0 mm 6 mps 759 mmHg 71%
    02:00 +21°C° 0 mm 6 mps 759 mmHg 72%
    03:00 +20°C° 0 mm 6 mps 759 mmHg 74%
    04:00 +20°C° 0 mm 6 mps 759 mmHg 75%
    05:00 +19°C° 0 mm 6 mps 759 mmHg 77%
    06:00 +20°C° 0 mm 5 mps 758 mmHg 72%
    07:00 +22°C° 0 mm 5 mps 758 mmHg 67%
    08:00 +23°C° 0 mm 5 mps 758 mmHg 63%
    09:00 +26°C° 0 mm 5 mps 757 mmHg 57%
    10:00 +27°C° 0 mm 4 mps 756 mmHg 52%
    11:00 +29°C° 0 mm 4 mps 756 mmHg 46%
    12:00 +30°C° 0 mm 4 mps 755 mmHg 45%
    13:00 +32°C° 0 mm 4 mps 754 mmHg 43%
    14:00 +33°C° 0 mm 5 mps 754 mmHg 41%
    15:00 +32°C° 0 mm 5 mps 753 mmHg 44%
    16:00 +32°C° 0 mm 5 mps 753 mmHg 47%
    17:00 +32°C° 0 mm 5 mps 753 mmHg 49%
    18:00 +29°C° 0 mm 5 mps 753 mmHg 56%
    19:00 +27°C° 0 mm 5 mps 753 mmHg 63%
    20:00 +26°C° 0 mm 4 mps 753 mmHg 69%
    21:00 +26°C° 0 mm 5 mps 753 mmHg 70%
    22:00 +26°C° 0 mm 5 mps 753 mmHg 72%
    23:00 +26°C° 0 mm 6 mps 754 mmHg 73%
    Show more